sat.trackr.live / text

‹ back to catalog

STARLINK-37252

NORAD 68622 · 2026-073W

PAYLOAD ACTIVE UNKNOWN

§ Identity

Operator
Country
US
Launch date
2026-04-07
Launch site
AFWTR
Launch vehicle
Mass (kg)
RCS (m²)

Purposes: comms

External: N2YO · Heavens-Above · Gunter

§ Orbital elements

Epoch: 2026-05-25T04:00:03.998880Z

Period
92.45 min
Inclination
97.2855°
Eccentricity
0.0001555
Mean motion
15.57643119 rev/d
Perigee alt
393.4 km
Apogee alt
395.5 km
Semi-major
6,772.6 km
B*
-2.9386e-2
RAAN
344.6720°
Arg perigee
106.2329°
Mean anomaly
235.9842°
Rev number
599

§ Raw data

STARLINK-372521 68622U 26073W   26145.16671295 -.01915351  00000+0 -29386-1 0  99922 68622  97.2855 344.6720 0001555 106.2329 235.9842 15.57643119  5995

JSON: /api/v1/satellites/68622 · /tle

For live sub-satellite position, see the globe view (requires WebGL).

§ Visibility from observer

Set your observer location to see the next 7 days of passes ≥ 10°. The values pass through the URL so the page stays shareable.

No JS? Fill the form by hand. The geolocation button needs JavaScript.